FENGYUN 1C DEB, 30674

Orbit data source: Space-Track

FENGYUN 1C DEB, 30674 is space debris in SSO originally from a launch on Mon, 10 May 1999 UTC launched from the Taiyaun Space Center, China (TSC). Fengyun 1C debris stems from the Chinese weather satellite Fengyun-1C, which was intentionally destroyed by a Chinese anti-satellite missile in 2007. This event dramatically increased the amount of space debris, with thousands of trackable fragments posing hazards to satellites and human spaceflight. The Fengyun 1C debris cloud has become a focal point in discussions about space sustainability and the need for international regulations to prevent the creation of new debris.

Loading next visibility...
Identifier
30674, 1999-025AQG
Orbit
SSO
Country
Flag of CNCN / PRC
Related business
Manufacturer
Unknown
Mission
Spacecraft
Bus & Motor
Unknown
Mass
Unknown
Launch date (UTC)
1999-05-10 (27 years ago)
Launch vehicle
Unknown
Launch site
Taiyaun Space Center, China (TSC)
Object type
Payload
Rocket body
Debris
Shape & HBR
Unknown shape, 0.1 m
Radar Cross Section
Small (<0.1 m²)

Expand to show TLE details & history
Last TLE update: 13 hours ago

TLE from 13 hours ago
0 FENGYUN 1C DEB
1 30674U 99025AQG 25353.45511865  .00052542  00000-0  45529-2 0  9993
2 30674  98.9378 157.2122 0025542 282.8300  77.0064 14.96636685974522
Epoch: 2025-12-19T10:55Z
TLE epoch observation values (Epoch: 2025-12-19T10:55:22.251Z)
Latitude
-0.00003°
Longitude
-94.92654°
Altitude
576.356 km
Speed
7.575 km/s
True Right ascension
10h 28m 50s
True Declination
0° 00' 00"
Sunlit
Object was in daylight at epoch
Visualization orbit readout
Latitude
Unknown
Longitude
Unknown
Altitude
Unknown
Speed
Unknown
Apparent Right ascension
Unknown
Apparent Declination
Unknown
Sunlit
N/A
Visualization observer readout
Local Sidereal Time
22:21:27
Azimuth
Unknown
Elevation
Unknown
Doppler factor
Unknown
Orbital elements
Apogee altitude
592.124 km
Perigee altitude
556.608 km
Semi-major axis
6,952.503 km
Eccentricity
0.00255
Inclination
98.9378°
RAAN
157.2122°
Arg. of periapsis
282.83°
True anomaly
77.2918°
Mean anomaly
77.0064°
Eccentric anomaly
77.14908°
Mean motion
3.74396 °/min
Orbital period
96.15 mins
BSTAR
0.0045529
Loading maneuver chart data...
Computing Atmospheric mass density...

Documentation

Showing up to 5 results
|